Manchester, NH

6:48 AM EDT on October 21, 2017 (GMT -0400)
Manchester

Weather History for KMHT - July, 2013

Change the Weather History Date:

Wednesday, July 10, 2013

  Actual Average Record
Temperature  
Mean Temperature 74 °F 72 °F  
Max Temperature 82 °F 82 °F 96 °F (1971)
Min Temperature 66 °F 63 °F 45 °F (1890)
Degree Days  
Heating Degree Days 0 0  
Month to date heating degree days 0  
Since 1 June heating degree days 58  
Since 1 July heating degree days 0  
Cooling Degree Days 8 8  
Month to date cooling degree days 72  
Year to date cooling degree days 222  
Since 1 June cooling degree days 192  
Growing Degree Days 24 (Base 50)    
Moisture  
Dew Point 69 °F    
Average Humidity 90    
Maximum Humidity 97    
Minimum Humidity 74    
Precipitation  
Precipitation 0.44 in 0.13 in 1.94 in (1997)
Month to date precipitation 1.14  
Year to date precipitation 22.97  
Snow  
Snow 0.00 in - - ()
Month to date snowfall  
Since 1 July snowfall  
Snow Depth -    
Sea Level Pressure  
Sea Level Pressure 29.92 in    
Wind  
Wind Speed 4 mph (SE)    
Max Wind Speed 9 mph    
Max Gust Speed -    
Visibility 5 miles    
Events Fog , Rain , Thunderstorm    
T = Trace of Precipitation, MM = Missing Value Source: NWS Daily Summary

Daily Weather History Graph

Daily Weather History Graph

Search for Another Location

Airport or City:

Trip Planner

Search our weather history database for the weather conditions in past years. The results will help you decide how hot, cold, wet, or windy it might be!

Date:

Astronomy

Jul. 10, 2013 Rise Set
Actual Time 5:16 AM EDT 8:25 PM EDT
Civil Twilight 4:42 AM EDT 8:59 PM EDT
Nautical Twilight 3:57 AM EDT 9:43 PM EDT
Astronomical Twilight 3:04 AM EDT 10:36 PM EDT
Moon 7:39 AM EDT (7/10) 9:28 PM EDT (7/10)
Length of Visible Light 16h 17m
Length of Day
15h 08m
Waxing Crescent, 5% of the Moon is Illuminated
Jul 10
Waxing Crescent
Jul 15
First Quarter
Jul 22
Full
Jul 29
Last Quarter
Aug 6
New

Hourly Weather History & Observations

Time (EDT) Temp. Heat Index Dew Point Humidity Pressure Visibility Wind Dir Wind Speed Gust Speed Precip Events Conditions
12:43 AM 68.0 °F - 64.4 °F 88% 30.06 in 10.0 mi SE 3.5 mph - N/A   Overcast
12:53 AM 68.0 °F - 64.0 °F 87% 30.08 in 10.0 mi ESE 4.6 mph - N/A   Overcast
1:11 AM 68.0 °F - 64.4 °F 88% 30.05 in 10.0 mi ESE 4.6 mph - N/A   Overcast
1:18 AM 68.0 °F - 64.4 °F 88% 30.05 in 10.0 mi ESE 4.6 mph - N/A   Overcast
1:53 AM 68.0 °F - 64.0 °F 87% 30.08 in 10.0 mi SE 4.6 mph - N/A   Overcast
2:53 AM 66.9 °F - 64.0 °F 90% 30.06 in 10.0 mi Calm Calm - N/A   Overcast
3:27 AM 66.2 °F - 62.6 °F 88% 30.02 in 10.0 mi SSE 4.6 mph - N/A   Overcast
3:35 AM 66.2 °F - 62.6 °F 88% 30.01 in 10.0 mi SE 3.5 mph - N/A   Overcast
3:53 AM 66.9 °F - 64.0 °F 90% 30.04 in 10.0 mi Calm Calm - N/A   Overcast
4:53 AM 66.0 °F - 64.0 °F 93% 30.03 in 10.0 mi ESE 4.6 mph - N/A   Overcast
5:27 AM 66.2 °F - 64.4 °F 94% 30.01 in 1.0 mi Calm Calm - N/A   Overcast
5:53 AM 66.0 °F - 64.0 °F 93% 30.04 in 3.0 mi Calm Calm - N/A   Overcast
6:53 AM 66.0 °F - 64.0 °F 93% 30.03 in 3.0 mi East 5.8 mph - N/A   Overcast
7:38 AM 66.2 °F - 64.4 °F 94% 30.00 in 1.5 mi SE 4.6 mph - N/A   Overcast
7:53 AM 66.0 °F - 64.0 °F 93% 30.03 in 1.5 mi SE 4.6 mph - 0.00 in   Light Drizzle
8:53 AM 66.0 °F - 64.9 °F 96% 30.01 in 1.5 mi ESE 4.6 mph - 0.00 in   Light Drizzle
9:40 AM 66.2 °F - 64.4 °F 94% 29.97 in 1.5 mi SE 4.6 mph - 0.00 in   Overcast
9:53 AM 66.9 °F - 64.9 °F 93% 30.00 in 1.0 mi ESE 4.6 mph - 0.00 in   Overcast
10:53 AM 68.0 °F - 66.0 °F 93% 29.99 in 1.0 mi SE 3.5 mph - N/A   Overcast
11:00 AM 68.0 °F - 66.2 °F 94% 29.95 in 2.0 mi ESE 4.6 mph - N/A   Overcast
11:49 AM 69.8 °F - 66.2 °F 88% 29.94 in 3.0 mi SE 3.5 mph - N/A   Overcast
11:53 AM 70.0 °F - 68.0 °F 93% 29.97 in 3.0 mi SE 4.6 mph - N/A   Overcast
12:53 PM 73.0 °F - 69.1 °F 87% 29.95 in 4.0 mi SSE 6.9 mph - N/A   Overcast
1:40 PM 75.2 °F - 69.8 °F 83% 29.88 in 6.0 mi SE 4.6 mph - N/A   Haze
1:53 PM 75.9 °F - 70.0 °F 82% 29.90 in 5.0 mi ESE 4.6 mph - N/A   Haze
2:11 PM 78.8 °F - 69.8 °F 74% 29.86 in 5.0 mi SE 6.9 mph - N/A   Haze
2:53 PM 81.0 °F 85.2 °F 72.0 °F 74% 29.87 in 6.0 mi SE 5.8 mph - N/A   Haze
3:41 PM 78.8 °F - 73.4 °F 83% 29.81 in 4.0 mi ESE 8.1 mph - 0.04 in Rain Light Rain
3:46 PM 78.8 °F - 73.4 °F 83% 29.82 in 5.0 mi SE 5.8 mph - 0.04 in Thunderstorm Unknown
3:53 PM 79.0 °F - 73.9 °F 84% 29.85 in 5.0 mi ESE 9.2 mph - 0.04 in Thunderstorm Unknown
4:05 PM 78.8 °F - 75.2 °F 89% 29.82 in 1.0 mi South 5.8 mph - 0.09 in Rain Heavy Rain
4:15 PM 77.0 °F - 75.2 °F 94% 29.80 in 3.0 mi ENE 6.9 mph - 0.16 in Rain Light Rain
4:29 PM 77.0 °F - 73.4 °F 89% 29.80 in 4.0 mi Variable 3.5 mph - 0.21 in Rain , Thunderstorm Light Thunderstorms and Rain
4:53 PM 77.0 °F - 73.0 °F 88% 29.83 in 5.0 mi East 4.6 mph - 0.21 in   Mostly Cloudy
5:53 PM 78.1 °F - 73.9 °F 87% 29.81 in 4.0 mi South 3.5 mph - N/A   Mostly Cloudy
6:17 PM 77.0 °F - 75.2 °F 94% 29.78 in 2.5 mi Calm Calm - 0.02 in Rain Rain
6:28 PM 77.0 °F - 75.2 °F 94% 29.79 in 0.5 mi WSW 4.6 mph - 0.14 in Fog , Rain Heavy Rain
6:35 PM 77.0 °F - 75.2 °F 94% 29.78 in 2.5 mi Variable 3.5 mph - 0.19 in Rain Light Rain
6:53 PM 75.9 °F - 73.9 °F 94% 29.82 in 5.0 mi South 3.5 mph - 0.19 in   Mostly Cloudy
7:53 PM 75.9 °F - 73.9 °F 94% 29.81 in 5.0 mi South 5.8 mph - N/A   Scattered Clouds
8:24 PM 77.0 °F - 75.2 °F 94% 29.79 in 4.0 mi South 5.8 mph - N/A   Mostly Cloudy
8:53 PM 75.9 °F - 75.0 °F 97% 29.81 in 4.0 mi South 5.8 mph - N/A   Mostly Cloudy
9:53 PM 75.9 °F - 73.9 °F 94% 29.82 in 4.0 mi South 4.6 mph - N/A   Partly Cloudy
10:53 PM 75.0 °F - 73.9 °F 96% 29.82 in 2.0 mi South 5.8 mph - N/A   Clear
11:53 PM 75.0 °F - 73.0 °F 94% 29.81 in 2.0 mi South 6.9 mph - N/A   Clear